Regional Weather Roundup
Issued by NWS

Home | Current Version | Previous Version | Text Only | Print | Product List | Glossary On
Versions: 1 2 3 4 5 6 7 8 9 10 11 12 13 14 15 16 17 18 19 20 21 22 23 24 25 26 27 28 29 30 31 32 33 34 35 36 37 38 39 40 41 42 43 44 45 46 47 48 49
000
ASUS43 KDMX 290007
RWRIA

WEATHER ROUNDUP FOR IOWA
NATIONAL WEATHER SERVICE DES MOINES IA
700 PM CDT TUE JUL 28 2015

NOTE: "FAIR" INDICATES FEW OR NO CLOUDS BELOW 12,000 FEET WITH NO
SIGNIFICANT WEATHER AND/OR OBSTRUCTIONS TO VISIBILITY.

* - THESE STATIONS ARE NOT NWS STATIONS...THUS NOT UNDER NWS
QUALITY CONTROL.  THEY ALSO DO NOT REPORT WEATHER SUCH
AS PRECIPITATION OR FOG.

IAZ001>003-012>014-020>022-031>034-043>046-290100-
   NORTHWEST IOWA

CITY           SKY/WX    TMP DP  RH WIND       PRES   REMARKS
CARROLL *      CLOUDY    77  73  88 N15       29.89S
CHEROKEE *     PTSUNNY   76  67  75 NW7       29.92S
DENISON *      PTSUNNY   75  70  83 N12       29.90S HAZE
LE MARS *      SUNNY     77  64  65 NW8       29.94S
ORANGE CITY *  SUNNY     75  61  60 NW9       29.94S
SHELDON *      SUNNY     75  63  64 W9        29.93R
SIOUX CITY     CLOUDY    78  61  55 N12       29.93S HX  80
6HR MIN TEMP:  75; 6HR MAX TEMP:  80; 6HR PCP: TRACE;

SPENCER        PTSUNNY   78  63  59 NW10      29.92S HX  80
6HR MIN TEMP:  74; 6HR MAX TEMP:  81; 6HR PCP:  0.01;

STORM LAKE *   PTSUNNY   75  72  88 NW8       29.94R
$$

IAZ055>058-069>071-079>083-090>094-290100-
   SOUTHWEST IOWA

CITY           SKY/WX    TMP DP  RH WIND       PRES   REMARKS
ATLANTIC *     CLOUDY    81  77  89 NW21G30   29.87R HX  88
AUDUBON *      LGT RAIN  77  73  88 NW15G22   29.89R
CLARINDA *     PTSUNNY   88  79  74 S6        29.84F HX 102
COUNCIL BLFS * MOSUNNY   77  72  83 NW16G23   29.90S
CRESTON *      PTSUNNY   86  79  79 S8        29.86F HX  99
HARLAN  *      PTSUNNY   77  77 100 N9G22     29.92S
LAMONI         MOSUNNY   91  77  63 S7        29.88R HX 104
6HR MIN TEMP:  85; 6HR MAX TEMP:  92;

RED OAK *      CLOUDY    86  81  84 NW15      29.84S HX 102
SHENANDOAH *   CLOUDY    88  82  84 SW3       29.82F HX 108
$$

IAZ047>049-059>061-072>074-084-290100-
   CENTRAL IOWA

CITY           SKY/WX    TMP DP  RH WIND       PRES   REMARKS
AMES           CLOUDY    77  76  96 E5        29.88F FOG
6HR MIN TEMP:  74; 6HR MAX TEMP:  78; 6HR PCP:  0.75;

ANKENY *       PTSUNNY   75  73  94 NE6       29.87F
CHARITON *     CLOUDY    75  70  83 E9        29.90F
DES MOINES     TSTM      76  72  87 S18G25    29.88R FOG
GRINNELL*      LGT RAIN  72  70  94 S16G29    29.89F
KNOXVILLE *    CLOUDY    73  70  88 CALM      29.88F
MARSHALLTOWN   CLOUDY    74  72  93 MISG      29.89R
6HR MIN TEMP:  72; 6HR MAX TEMP:  76; 6HR PCP:  0.47;

PELLA *        RAIN      72  72 100 N5        29.89F
PERRY *        HVY RAIN  75  73  94 CALM      29.87F
$$

IAZ004>006-015-016-023>025-035-036-290100-
   NORTH CENTRAL IOWA

CITY           SKY/WX    TMP DP  RH WIND       PRES   REMARKS
ALGONA *       CLOUDY    77  73  88 W8        29.93R
CLARION *      CLOUDY    79  75  89 SW7       29.90S HX  82
ESTHERVILLE    CLOUDY    76  71  85 W8        29.91R
6HR MIN TEMP:  75; 6HR MAX TEMP:  80;

FORT DODGE *   CLOUDY    79  73  83 CALM      29.91S HX  82
MASON CITY     CLOUDY    76  72  87 W9        29.92R
6HR MIN TEMP:  75; 6HR MAX TEMP:  78;

FOREST CITY *  RAIN      77  72  83 W3        29.92R
IOWA FALLS *     N/A     74  71  90 CALM      29.91F
$$

IAZ007>011-017>019-026>030-037>042-050>054-066-290100-
   NORTHEAST IOWA

CITY           SKY/WX    TMP DP  RH WIND       PRES   REMARKS
CEDAR RAPIDS   CLOUDY    74  71  91 NE8       29.89R
6HR MIN TEMP:  72; 6HR MAX TEMP:  79; 6HR PCP:  0.01;

CHARLES CITY * SUNNY     75  75 100 S5        29.91R
CLINTON *      CLOUDY    81  75  83 SE6       29.91F HX  86
DECORAH *      SUNNY     77  72  83 SW5       29.91R
DUBUQUE        CLOUDY    78  72  81 S5        29.92S HX  80
6HR MIN TEMP:  73; 6HR MAX TEMP:  82; 6HR PCP:  0.06;

MONTICELLO *   SUNNY     75  73  94 CALM      29.91R
OELWEIN *      SUNNY     73  72  94 CALM      29.93R
WATERLOO       CLOUDY    74  71  91 N3        29.89R
6HR MIN TEMP:  73; 6HR MAX TEMP:  79;

$$

IAZ064-065-067-068-078-290100-
   EAST CENTRAL IOWA

CITY           SKY/WX    TMP DP  RH WIND       PRES   REMARKS
DAVENPORT      CLOUDY    83  77  82 W6        29.90S HX  92
6HR MIN TEMP:  73; 6HR MAX TEMP:  85; 6HR PCP:  0.12;

IOWA CITY      CLOUDY    77  68  73 SW10      29.88F THUNDER
6HR MIN TEMP:  71; 6HR MAX TEMP:  84; 6HR PCP:  0.08;

MT. PLEASANT * MOSUNNY   85  75  72 N8        29.91R HX  94
MUSCATINE *    SUNNY     82  73  74 SW9       29.90S HX  88
QUAD CITIES    CLOUDY    85  78  80 S5        29.88F HX  96
6HR MIN TEMP:  76; 6HR MAX TEMP:  86; 6HR PCP:  0.13;

$$

IAZ062-063-075>077-085>089-095>099-290100-
   SOUTHEAST IOWA

CITY           SKY/WX    TMP DP  RH WIND       PRES   REMARKS
FAIRFIELD *    SUNNY     81  75  83 NE9       29.93R HX  86
FORT MADISON * PTSUNNY   88  82  84 CALM      29.91R HX 108
KEOKUK *       MOSUNNY   90  81  74 SW3       29.89R HX 108
OSKALOOSA *      N/A     69  67  93 N23       29.99R
CENTERVILLE *  SUNNY     86  77  74 S3        29.92S HX  97
OTTUMWA        TSTM      69  68  96 N40G52    29.96R VSB 1/2
6HR MIN TEMP:  72; 6HR MAX TEMP:  89; 6HR PCP:  0.05;

WASHINGTON *   PTSUNNY   82  73  74 N5        29.93S HX  88
$$

ABBREVIATIONS USED IN REMARKS
   TC - TEMPERATURES IN CELSIUS
  WCI - WIND CHILL INDEX
   HX - HEAT INDEX
  VSB - VISIBILITY
$$



USA.gov is the U.S. government's official web portal to all federal, state and local government web resources and services.